星链-5063 (STARLINK-5063 )

导读

STARLINK-5063是由美国于2022年9月24日发射的星链卫星,星链是太空探索技术公司打造的低轨卫星互联网星座项目。该卫星承担为全球提供高速互联网接入服务的任务,尤其服务偏远地区与网络基础设施薄弱区域,进一步扩充了星链星座的覆盖能力与服务容量。

基本信息
目录编号:
53907
目录名称:
STARLINK-5063
国际标识:
2022-119X
轨道中心:
EARTH
卫星名称:
星链-5063
卫星全名:
星链-5063 (STARLINK-5063 )
卫星状态:
已陨落 最后检测时间 2025-02-27
发射日期:
2022-09-24 UTC
国别 :
美国 (US)
星等 :
--
轨道信息
数据来源 国际轨道数据
星历时间: 2025-02-27T06:18:46+0800
轨道信息已过期473天
半长轴: 6526.884km
偏心率: 0.0004909
轨道倾角: 53.193°
近地点辐角 270.295°
升交点赤经 182.405°
平近点角 192.630°
近地点: 145.544km
远地点: 151.954km
周期: 87.462分钟
每日圈数: 16.464328
详细信息
固有亮度:
5
最大亮度:
2.5
卫星平台:
Starlink v1.5
覆盖范围:
全球
运营商:
太空探索技术公司
运营商所在国:
美国
制造商(研发单位):
太空探索技术公司
制造商所在国:
美国
使用方式:
暂无
卫星简介
星链(Starlink)计划是由太空探索技术公司(SpaceX)提出的一个巨型低轨卫星互联网星座项目,计划在2019年至2024年间在太空搭建由约1.2万颗卫星组成的“星链”网络,其中1584颗将部署在地球上空550千米处的近地轨道,并从2020年开始工作。该卫星仍在工作。